Regional Weather Roundup
Issued by NWS

Home | Current Version | Previous Version | Text Only | Print | Product List | Glossary Off
Versions: 1 2 3 4 5 6 7 8 9 10 11 12 13 14 15 16 17 18 19 20 21 22 23 24 25 26 27 28 29 30 31 32 33 34 35 36 37 38 39 40 41 42 43 44 45 46 47 48

000
ASUS45 KCYS 261110
RWRWY

WYOMING REGIONAL WEATHER ROUNDUP
NATIONAL WEATHER SERVICE CHEYENNE WY
400 AM MST WED NOV 26 2014

NOTE:  "FAIR" INDICATES FEW OR NO CLOUDS BELOW 12,000 FEET
WITH NO SIGNIFICANT WEATHER AND/OR OBSTRUCTIONS TO VISIBILITY.

WYZ001-261200-
YELLOWSTONE NATIONAL PARK

CITY           SKY/WX    TMP DP  RH WIND       PRES   REMARKS
LK YELLOWSTONE   N/A     32  29  88 VRB6G20   30.08F WCI  26
W YELLOWSTONE  NOT AVBL

$$
WYZ002>013-054>058-071-098>099-261200-
NORTHERN WYOMING

CITY           SKY/WX    TMP DP  RH WIND       PRES   REMARKS
JACKSON        CLOUDY    39  34  81 SW21G30   30.11F WCI  29
CODY           CLOUDY    25  23  93 S6        30.11F WCI  18
GREYBULL       LGT SNOW  26  26 100 CALM      30.17S FOG
WORLAND        LGT SNOW  27  25  92 CALM      30.17F FOG
SHERIDAN       CLOUDY    29  21  72 W8        30.15F WCI  21
BUFFALO        FLURRIES  26  18  71 W5        30.14F WCI  20
GILLETTE       CLOUDY    26  23  88 W7        30.14F FOG     WCI  18
HULETT           N/A    N/A N/A N/A MISG        N/A
NEWCASTLE      FAIR      25  23  93 W12G17    30.15S WCI  14

$$
WYZ014>020-022>026-101>103-261200-
CENTRAL WYOMING

CITY           SKY/WX    TMP DP  RH WIND       PRES   REMARKS
BIG PINEY      PTCLDY   N/A N/A N/A NW13      30.15R
PINEDALE       DRIZZLE   34  32  93 NW15      30.14S WCI  24
DUBOIS         FLURRIES  21  21 100 S3        30.05F
LANDER         CLOUDY    26  24  92 NW6       30.12R WCI  19
RIVERTON       CLOUDY    25  22  88 E6        30.13S WCI  18
CASPER         LGT SNOW  23  20  88 S5        30.14F FOG     WCI  17
DOUGLAS        FLURRIES N/A N/A N/A NW8       30.16S

$$
WYZ021-027>030-104>119-261200-
SOUTHERN WYOMING

CITY           SKY/WX    TMP DP  RH WIND       PRES   REMARKS
EVANSTON       PTCLDY    35  30  82 W21       30.28R WCI  24
FORT BRIDGER   CLOUDY    37  33  83 W21G30    30.27F WCI  27
ROCK SPRINGS   CLOUDY    38  30  73 W29G40    30.15S WCI  26
DIXON          CLOUDY    37  29  73 SW14G20   30.21R WCI  29
RAWLINS        CLOUDY    36  31  82 W28G39    30.07F WCI  23
SARATOGA       CLOUDY    37  32  81 W21G32    30.11R WCI  27
LARAMIE        MIX PCPN  20  17  88 CALM      30.07F
CHEYENNE       FLURRIES  22  18  85 N9        30.13R WCI  12
TORRINGTON     CLOUDY    28  23  81 W9        30.15S WCI  19
PINE BLUFFS    LGT SNOW  27  23  86 NW14G20   30.15R WCI  15

$$



USA.gov is the U.S. government's official web portal to all federal, state and local government web resources and services.